When you browse on this site, cookies collect data to enhance your experience and personalize the content and advertising you see.
Visit our Privacy Policy to learn more. By continuing to use the site, you agree to this use of cookies and data.
  • In Romania
  • List of Countries
  • For 7 days
  • Water Temperature
  • Satellite Maps
  • Weather Map
  • Weather Widgets
  • user-avatar
    Login

    Hourly Weather Darłowo

    Today, 26 March, Tuesday

    Time Temperature Precipitation Wind Pressure Humidity
    00:00 +1°C° 0 mm 3 mps 763 mmHg 93%
    01:00 +2°C° 0 mm 2 mps 763 mmHg 93%
    02:00 0°C° 0 mm 4 mps 763 mmHg 93%
    03:00 0°C° 0 mm 5 mps 763 mmHg 93%
    04:00 +1°C° 0 mm 6 mps 762 mmHg 93%
    05:00 0°C° 0 mm 7 mps 762 mmHg 90%
    06:00 0°C° 0 mm 8 mps 761 mmHg 88%
    07:00 +1°C° 0 mm 9 mps 761 mmHg 84%
    08:00 +1°C° 0 mm 9 mps 761 mmHg 79%
    09:00 +2°C° 0 mm 10 mps 761 mmHg 75%
    10:00 +3°C° 0 mm 11 mps 761 mmHg 70%
    11:00 +3°C° 0 mm 10 mps 761 mmHg 66%
    12:00 +3°C° 0 mm 9 mps 761 mmHg 62%
    13:00 +5°C° 0 mm 8 mps 762 mmHg 57%
    14:00 +4°C° 0 mm 7 mps 762 mmHg 54%
    15:00 +4°C° 0 mm 7 mps 762 mmHg 51%
    16:00 +4°C° 0 mm 6 mps 763 mmHg 48%
    17:00 +3°C° 0 mm 5 mps 763 mmHg 55%
    18:00 +3°C° 0 mm 4 mps 764 mmHg 61%
    19:00 +2°C° 0 mm 3 mps 765 mmHg 67%
    20:00 +2°C° 0 mm 2 mps 765 mmHg 67%
    21:00 +3°C° 0 mm 1 mps 766 mmHg 68%
    22:00 +2°C° 0 mm 1 mps 767 mmHg 69%
    23:00 +1°C° 0 mm 2 mps 767 mmHg 69%

    Tomorrow, 27 March, Wednesday

    Time Temperature Precipitation Wind Pressure Humidity
    00:00 0°C° 0 mm 3 mps 767 mmHg 69%
    01:00 0°C° 0 mm 3 mps 767 mmHg 69%
    02:00 -1°C° 0 mm 4 mps 767 mmHg 72%
    03:00 -1°C° 0 mm 4 mps 767 mmHg 76%
    04:00 -1°C° 0 mm 4 mps 767 mmHg 79%
    05:00 0°C° 0 mm 4 mps 767 mmHg 77%
    06:00 0°C° 0 mm 5 mps 768 mmHg 75%
    07:00 +1°C° 0 mm 5 mps 768 mmHg 72%
    08:00 +2°C° 0.1 mm 5 mps 768 mmHg 76%
    09:00 +2°C° 0.1 mm 6 mps 768 mmHg 79%
    10:00 +3°C° 0.1 mm 6 mps 768 mmHg 82%
    11:00 +3°C° 0.3 mm 6 mps 768 mmHg 85%
    12:00 +3°C° 0.3 mm 6 mps 768 mmHg 87%
    13:00 +3°C° 0.3 mm 7 mps 768 mmHg 89%
    14:00 +4°C° 0.2 mm 7 mps 767 mmHg 90%
    15:00 +4°C° 0.2 mm 6 mps 767 mmHg 91%
    16:00 +4°C° 0.2 mm 6 mps 767 mmHg 91%
    17:00 +4°C° 0.1 mm 6 mps 767 mmHg 93%
    18:00 +5°C° 0.1 mm 5 mps 767 mmHg 94%
    19:00 +5°C° 0.1 mm 5 mps 767 mmHg 96%
    20:00 +5°C° 0.1 mm 4 mps 768 mmHg 96%
    21:00 +5°C° 0.1 mm 4 mps 768 mmHg 96%
    22:00 +5°C° 0.1 mm 3 mps 768 mmHg 97%
    23:00 +4°C° 0 mm 3 mps 768 mmHg 96%

    Day after tomorrow, 28 March, Thursday

    Time Temperature Precipitation Wind Pressure Humidity
    00:00 +5°C° 0 mm 2 mps 769 mmHg 96%
    01:00 +6°C° 0 mm 1 mps 769 mmHg 95%
    02:00 +6°C° 0 mm 1 mps 769 mmHg 95%
    03:00 +5°C° 0 mm 1 mps 770 mmHg 94%
    04:00 +5°C° 0 mm 1 mps 770 mmHg 94%
    05:00 +6°C° 0 mm 1 mps 770 mmHg 93%
    06:00 +6°C° 0 mm 1 mps 771 mmHg 93%
    07:00 +5°C° 0 mm 0 mps 771 mmHg 93%
    08:00 +8°C° 0 mm 1 mps 771 mmHg 86%
    09:00 +9°C° 0 mm 1 mps 772 mmHg 79%
    10:00 +11°C° 0 mm 1 mps 772 mmHg 72%
    11:00 +11°C° 0 mm 1 mps 772 mmHg 68%
    12:00 +12°C° 0 mm 2 mps 773 mmHg 64%
    13:00 +13°C° 0 mm 2 mps 773 mmHg 61%
    14:00 +11°C° 0 mm 3 mps 773 mmHg 63%
    15:00 +11°C° 0 mm 4 mps 773 mmHg 66%
    16:00 +11°C° 0 mm 4 mps 772 mmHg 69%
    17:00 +8°C° 0 mm 4 mps 773 mmHg 75%
    18:00 +7°C° 0 mm 4 mps 773 mmHg 82%
    19:00 +5°C° 0 mm 4 mps 773 mmHg 89%
    20:00 +5°C° 0 mm 4 mps 773 mmHg 91%
    21:00 +5°C° 0 mm 4 mps 773 mmHg 93%
    22:00 +5°C° 0 mm 5 mps 773 mmHg 95%
    23:00 +5°C° 0 mm 5 mps 773 mmHg 95%

    29 March, Friday

    Time Temperature Precipitation Wind Pressure Humidity
    00:00 +5°C° 0 mm 5 mps 773 mmHg 95%
    01:00 +5°C° 0 mm 5 mps 774 mmHg 95%
    02:00 +5°C° 0 mm 5 mps 773 mmHg 95%
    03:00 +5°C° 0 mm 5 mps 773 mmHg 95%
    04:00 +5°C° 0 mm 5 mps 773 mmHg 95%
    05:00 +5°C° 0 mm 5 mps 773 mmHg 94%
    06:00 +6°C° 0 mm 5 mps 773 mmHg 93%
    07:00 +6°C° 0 mm 5 mps 773 mmHg 93%
    08:00 +7°C° 0 mm 5 mps 773 mmHg 87%
    09:00 +8°C° 0 mm 5 mps 773 mmHg 82%
    10:00 +9°C° 0 mm 6 mps 773 mmHg 76%
    11:00 +10°C° 0 mm 6 mps 773 mmHg 73%
    12:00 +10°C° 0 mm 6 mps 773 mmHg 70%
    13:00 +11°C° 0 mm 7 mps 772 mmHg 67%
    14:00 +10°C° 0 mm 6 mps 772 mmHg 67%
    15:00 +10°C° 0 mm 6 mps 772 mmHg 66%
    16:00 +10°C° 0 mm 6 mps 771 mmHg 66%
    17:00 +9°C° 0 mm 6 mps 771 mmHg 71%
    18:00 +8°C° 0 mm 5 mps 771 mmHg 76%
    19:00 +7°C° 0 mm 5 mps 771 mmHg 81%
    20:00 +6°C° 0 mm 5 mps 771 mmHg 82%
    21:00 +6°C° 0 mm 5 mps 771 mmHg 83%
    22:00 +6°C° 0 mm 5 mps 771 mmHg 85%
    23:00 +6°C° 0 mm 5 mps 771 mmHg 87%

    30 March, Saturday

    Time Temperature Precipitation Wind Pressure Humidity
    00:00 +6°C° 0 mm 5 mps 770 mmHg 89%
    01:00 +6°C° 0 mm 5 mps 770 mmHg 91%
    02:00 +6°C° 0 mm 5 mps 770 mmHg 92%
    03:00 +6°C° 0 mm 5 mps 769 mmHg 92%
    04:00 +6°C° 0 mm 5 mps 769 mmHg 93%
    05:00 +6°C° 0 mm 5 mps 769 mmHg 92%
    06:00 +6°C° 0 mm 5 mps 769 mmHg 91%
    07:00 +7°C° 0 mm 5 mps 769 mmHg 90%
    08:00 +8°C° 0 mm 5 mps 768 mmHg 84%
    09:00 +10°C° 0 mm 6 mps 768 mmHg 78%
    10:00 +11°C° 0 mm 6 mps 768 mmHg 72%
    11:00 +13°C° 0 mm 6 mps 767 mmHg 69%
    12:00 +14°C° 0 mm 6 mps 767 mmHg 65%
    13:00 +15°C° 0 mm 6 mps 767 mmHg 62%
    14:00 +14°C° 0 mm 6 mps 766 mmHg 63%
    15:00 +14°C° 0 mm 5 mps 765 mmHg 65%
    16:00 +14°C° 0 mm 5 mps 765 mmHg 66%
    17:00 +12°C° 0 mm 4 mps 765 mmHg 72%
    18:00 +11°C° 0 mm 4 mps 764 mmHg 77%
    19:00 +10°C° 0 mm 3 mps 764 mmHg 83%
    20:00 +10°C° 0 mm 3 mps 764 mmHg 82%
    21:00 +10°C° 0 mm 3 mps 764 mmHg 81%
    22:00 +9°C° 0 mm 3 mps 764 mmHg 81%
    23:00 +9°C° 0 mm 3 mps 764 mmHg 82%

    31 March, Sunday

    Time Temperature Precipitation Wind Pressure Humidity
    00:00 +9°C° 0 mm 3 mps 763 mmHg 83%
    01:00 +8°C° 0 mm 4 mps 763 mmHg 84%
    02:00 +7°C° 0 mm 4 mps 763 mmHg 85%
    03:00 +6°C° 0 mm 4 mps 763 mmHg 86%
    04:00 +5°C° 0 mm 4 mps 763 mmHg 87%
    05:00 +5°C° 0 mm 4 mps 763 mmHg 84%
    06:00 +5°C° 0 mm 4 mps 764 mmHg 81%
    07:00 +5°C° 0 mm 5 mps 764 mmHg 78%
    08:00 +5°C° 0 mm 5 mps 764 mmHg 74%
    09:00 +6°C° 0 mm 5 mps 765 mmHg 70%
    10:00 +5°C° 0 mm 6 mps 765 mmHg 66%
    11:00 +5°C° 0 mm 6 mps 765 mmHg 65%
    12:00 +6°C° 0 mm 5 mps 766 mmHg 63%
    13:00 +7°C° 0 mm 5 mps 766 mmHg 61%
    14:00 +6°C° 0 mm 5 mps 767 mmHg 62%
    15:00 +6°C° 0 mm 5 mps 767 mmHg 63%
    16:00 +6°C° 0 mm 5 mps 767 mmHg 63%
    17:00 +5°C° 0 mm 5 mps 768 mmHg 66%
    18:00 +3°C° 0 mm 5 mps 768 mmHg 69%
    19:00 +2°C° 0 mm 5 mps 769 mmHg 71%
    20:00 +1°C° 0 mm 5 mps 769 mmHg 71%
    21:00 +1°C° 0 mm 4 mps 770 mmHg 71%
    22:00 0°C° 0 mm 4 mps 770 mmHg 71%
    23:00 0°C° 0 mm 4 mps 771 mmHg 73%
    Show more